This is the latest recevied weather packets stored in our database for station/object WB9TLH-11. If no packets are shown the sender has not sent any weather packets the latest 10 day(s).
| Time | Temp. | Humidity | Pressure | Rain* | Wind** | Luminosity | Snow |
|---|---|---|---|---|---|---|---|
| 1777917354 | 20.56° C | 55% | 1008.4 hPa | 0 mm | - | - | - |
| 1777917054 | 20.56° C | 55% | 1008.4 hPa | 0 mm | - | - | - |
| 1777916754 | 20.56° C | 54% | 1008.4 hPa | 0 mm | - | - | - |
| 1777916454 | 20° C | 57% | 1008.5 hPa | 0 mm | - | - | - |
| 1777916154 | 20° C | 57% | 1008.6 hPa | 0 mm | - | - | - |
| 1777915854 | 19.44° C | 58% | 1008.6 hPa | 0 mm | - | - | - |
| 1777915554 | 19.44° C | 57% | 1008.6 hPa | 0 mm | - | - | - |
| 1777915254 | 19.44° C | 57% | 1008.6 hPa | 0 mm | - | - | - |
| 1777914954 | 19.44° C | 56% | 1008.7 hPa | 0 mm | - | - | - |
| 1777914654 | 19.44° C | 57% | 1008.6 hPa | 0 mm | - | - | - |
| 1777914354 | 19.44° C | 56% | 1008.6 hPa | 0 mm | - | - | - |
| 1777914054 | 20° C | 56% | 1008.6 hPa | 0 mm | - | - | - |
| 1777913754 | 20° C | 55% | 1008.3 hPa | 0 mm | - | - | - |
| 1777913454 | 20° C | 56% | 1008.3 hPa | 0 mm | - | - | - |
| 1777913154 | 20° C | 54% | 1008.2 hPa | 0 mm | - | - | - |
| 1777912854 | 20° C | 55% | 1008.3 hPa | 0 mm | - | - | - |
| 1777912615 | 20° C | 54% | 1008.4 hPa | 0 mm | - | - | - |
| 1777912554 | 20° C | 54% | 1008.4 hPa | 0 mm | - | - | - |
| 1777912254 | 20° C | 54% | 1008.4 hPa | 0 mm | - | - | - |
| 1777911954 | 20° C | 56% | 1008.5 hPa | 0 mm | - | - | - |
| 1777911654 | 20° C | 56% | 1008.7 hPa | 0 mm | - | - | - |
| 1777911354 | 20° C | 56% | 1008.8 hPa | 0 mm | - | - | - |
| 1777911054 | 19.44° C | 56% | 1008.5 hPa | 0 mm | - | - | - |
| 1777910754 | 19.44° C | 57% | 1008.5 hPa | 0 mm | - | - | - |
| 1777910454 | 19.44° C | 57% | 1008.4 hPa | 0 mm | - | - | - |
* Rain latest hour (hover to see other rain measurements)
** Current wind speed in m/s (hover to see current wind gust speed)